EUTELSAT HOT BIRD 13B

Last updated on Jan. 18, 2020, 4:38 a.m. UTC

1 29270U 06032A   20017.80598042  .00000082  00000-0  00000+0 0  9996
2 29270   0.0589  22.9670 0004353 289.8706 106.9809  1.00269150 49375
UTC
Height (km)
Latitude
Longitude
Inclination
Orbital Period
UTC large
Height (km)
Speed (km/s)
/
Latitude / Longitude
Inclination (degrees)
Orbital Period (minutes)
Azimuth
Elevation
Range (km)
Doppler Factor
iOS Compass Heading
iOS Angle

Next 30 passes for location: Hong Kong

Rise time Rise Azimuth (degrees) Set time Set Azimuth (degrees) Duration Max altitude (degrees)

No matching passes for this satellites